EW4883 Weather Reports


time (UTC)temp
F
wind
direction
speed
knots
gust
knots
rain 1hr
in
rain 24hr
in
rain mn
in
humidity
%
barometer
mb
20260904044051 82 127 2.6 7.8 0.00 0.00 0.00 57 1014.9
20260904043558 82 109 4.3 8.7 0.00 0.00 0.00 57 1014.9
20260904043106 83 123 2.6 8.7 0.00 0.00 0.00 58 1014.9
20260904042552 83 136 3.5 8.7 0.00 0.00 0.00 58 1014.9
20260904042055 83 126 3.5 7.8 0.00 0.00 0.00 58 1014.9
20260904041609 83 89 2.6 7.8 0.00 0.00 0.00 58 1014.9
20260904041052 83 88 1.7 7.0 0.00 0.00 0.00 58 1014.9
20260904040552 83 82 2.6 7.8 0.00 0.00 0.00 58 1014.8
20260904040104 83 84 2.6 7.8 0.00 0.00 0.00 57 1014.8
20260904035552 83 93 2.6 7.0 0.00 0.00 0.00 57 1014.7
20260904035055 83 126 1.7 7.8 0.00 0.00 0.00 57 1014.7
20260904034600 83 115 3.5 7.8 0.00 0.00 0.00 57 1014.5
20260904034052 84 103 2.6 8.7 0.00 0.00 0.00 57 1014.4
20260904033549 84 103 4.3 8.7 0.00 0.00 0.00 56 1014.3
20260904033058 84 62 2.6 7.0 0.00 0.00 0.00 54 1014.3
20260904032552 84 130 1.7 3.5 0.00 0.00 0.00 52 1014.2
20260904032052 85 0 0.9 4.3 0.00 0.00 0.00 53 1013.9
20260904031605 85 132 0.9 4.3 0.00 0.00 0.00 52 1013.8
20260904031053 85 0 0.9 4.3 0.00 0.00 0.00 52 1013.7
20260904030550 85 0 0.0 1.7 0.00 0.00 0.00 52 1013.6
20260904030103 85 0 0.0 6.1 0.00 0.00 0.00 51 1013.5
20260904025556 85 0 0.9 9.6 0.00 0.00 0.00 51 1013.5
20260904025052 85 154 3.5 9.6 0.00 0.00 0.00 51 1013.4
20260904024608 85 136 4.3 7.8 0.00 0.00 0.00 52 1013.4
20260904024050 85 134 3.5 7.0 0.00 0.00 0.00 52 1013.3
20260904023556 85 129 2.6 7.0 0.00 0.00 0.00 52 1013.2
20260904023105 86 99 1.7 7.0 0.00 0.00 0.00 52 1013.0
20260904022554 86 129 1.7 5.2 0.00 0.00 0.00 51 1013.0
20260904022052 86 163 0.0 4.3 0.00 0.00 0.00 50 1013.1
20260904021602 86 0 0.9 4.3 0.00 0.00 0.00 50 1013.1
20260904021052 86 163 0.9 3.5 0.00 0.00 0.00 50 1013.1
20260904020552 86 163 0.0 7.0 0.00 0.00 0.00 49 1013.0
20260904015552 87 154 2.6 7.8 0.00 0.00 0.00 47 1013.0
20260904015051 87 153 3.5 7.8 0.00 0.00 0.00 46 1012.9
20260904014608 88 137 2.6 7.0 0.00 0.00 0.00 45 1012.8
20260904014053 88 211 0.9 4.3 0.00 0.00 0.00 45 1012.6
20260904013556 88 0 1.7 6.1 0.00 0.00 0.00 45 1012.5
20260904013126 89 0 0.9 7.0 0.00 0.00 0.00 45 1012.7
20260904012554 89 186 2.6 7.0 0.00 0.00 0.00 44 1012.5
20260904012049 89 161 0.9 6.1 0.00 0.00 0.00 44 1012.8
20260904011601 89 188 1.7 6.1 0.00 0.00 0.00 44 1012.6
20260904011053 90 148 0.9 5.2 0.00 0.00 0.00 44 1012.5
20260904010552 90 159 0.9 5.2 0.00 0.00 0.00 43 1012.3
20260904010057 90 0 0.9 7.8 0.00 0.00 0.00 44 1012.2
20260904005552 90 212 1.7 7.8 0.00 0.00 0.00 43 1012.4
20260904005052 90 163 2.6 7.8 0.00 0.00 0.00 43 1012.4
20260904004603 90 172 1.7 7.8 0.00 0.00 0.00 43 1012.6
20260904004053 91 155 2.6 7.8 0.00 0.00 0.00 43 1012.6
20260904003552 91 157 1.7 7.0 0.00 0.00 0.00 43 1012.5
20260904003101 91 170 2.6 8.7 0.00 0.00 0.00 42 1012.5
20260904002549 91 157 3.5 8.7 0.00 0.00 0.00 43 1012.5
20260904002054 92 141 3.5 7.0 0.00 0.00 0.00 42 1012.2
20260904001609 93 158 3.5 7.0 0.00 0.00 0.00 40 1012.2
20260904001052 94 183 0.9 7.0 0.00 0.00 0.00 38 1012.2
20260904000555 93 232 1.7 7.0 0.00 0.00 0.00 38 1012.2
20260904000113 93 242 2.6 7.0 0.00 0.00 0.00 38 1012.4
20260903235553 94 233 2.6 6.1 0.00 0.00 0.00 39 1012.3
20260903235051 94 178 2.6 6.1 0.00 0.00 0.00 39 1012.5
20260903234606 94 0 0.0 5.2 0.00 0.00 0.00 38 1012.5
20260903234052 94 226 2.6 7.0 0.00 0.00 0.00 38 1012.5
20260903233552 94 0 1.7 7.0 0.00 0.00 0.00 38 1012.5
20260903233101 94 0 0.0 7.0 0.00 0.00 0.00 38 1012.6
20260903232555 94 0 2.6 7.0 0.00 0.00 0.00 39 1012.6
20260903232051 94 244 0.9 7.0 0.00 0.00 0.00 39 1012.7
20260903231610 94 248 0.0 6.1 0.00 0.00 0.00 40 1012.6
20260903231054 93 179 0.9 6.1 0.00 0.00 0.00 40 1012.6
20260903230552 93 0 0.0 5.2 0.00 0.00 0.00 41 1012.6
20260903230108 93 16 0.9 5.2 0.00 0.00 0.00 40 1012.6
20260903225552 92 0 0.0 7.8 0.00 0.00 0.00 41 1012.7
20260903225051 93 0 0.9 7.8 0.00 0.00 0.00 40 1012.7
20260903224603 93 350 4.3 7.8 0.00 0.00 0.00 41 1012.7
20260903224051 93 267 1.7 7.0 0.00 0.00 0.00 40 1012.6
20260903223550 93 352 1.7 7.8 0.00 0.00 0.00 40 1012.7
20260903223117 92 352 2.6 7.8 0.00 0.00 0.00 41 1012.7
20260903222552 92 32 0.9 3.5 0.00 0.00 0.00 42 1012.5
20260903222053 91 0 0.9 8.7 0.00 0.00 0.00 43 1012.6
20260903221604 90 249 1.7 8.7 0.00 0.00 0.00 43 1012.8
20260903221051 90 255 4.3 8.7 0.00 0.00 0.00 42 1013.0
20260903220552 91 254 3.5 7.8 0.00 0.00 0.00 41 1013.1
20260903215555 92 292 0.9 4.3 0.00 0.00 0.00 42 1013.1
20260903215053 91 292 0.9 6.1 0.00 0.00 0.00 43 1013.1
20260903214600 91 0 1.7 6.1 0.00 0.00 0.00 44 1013.2
20260903214051 90 298 2.6 7.8 0.00 0.00 0.00 44 1013.3
20260903213554 91 0 1.7 7.8 0.00 0.00 0.00 43 1013.3
20260903213113 91 27 1.7 4.3 0.00 0.00 0.00 43 1013.3
20260903212555 91 5 0.0 4.3 0.00 0.00 0.00 44 1013.4
20260903212053 90 0 1.7 5.2 0.00 0.00 0.00 44 1013.5
20260903211602 90 352 2.6 7.8 0.00 0.00 0.00 44 1013.5
20260903211055 90 55 2.6 7.8 0.00 0.00 0.00 45 1013.5
20260903210552 90 352 2.6 7.8 0.00 0.00 0.00 45 1013.7
20260903205551 88 327 3.5 7.8 0.00 0.00 0.00 47 1013.8
20260903205051 88 261 1.7 7.8 0.00 0.00 0.00 47 1013.9
20260903204600 89 269 2.6 7.8 0.00 0.00 0.00 46 1014.0
20260903204051 89 246 3.5 7.8 0.00 0.00 0.00 46 1014.1
20260903203554 89 238 2.6 6.1 0.00 0.00 0.00 45 1014.0
20260903203058 89 0 0.0 5.2 0.00 0.00 0.00 45 1014.1
20260903202553 89 0 0.9 5.2 0.00 0.00 0.00 45 1014.2
20260903202053 90 17 0.9 6.1 0.00 0.00 0.00 44 1014.3
20260903201606 90 0 2.6 6.1 0.00 0.00 0.00 44 1014.4
20260903201055 90 209 1.7 4.3 0.00 0.00 0.00 45 1014.4
20260903200552 89 0 0.0 5.2 0.00 0.00 0.00 45 1014.5
20260903200104 89 0 0.0 5.2 0.00 0.00 0.00 45 1014.6
20260903195551 89 254 1.7 5.2 0.00 0.00 0.00 44 1014.6
20260903195051 90 52 0.9 5.2 0.00 0.00 0.00 43 1014.8
20260903194601 90 141 0.9 4.3 0.00 0.00 0.00 44 1014.9
20260903194051 90 117 0.0 6.1 0.00 0.00 0.00 45 1015.0
20260903193551 89 115 1.7 6.1 0.00 0.00 0.00 46 1015.0
20260903193057 89 0 3.5 8.7 0.00 0.00 0.00 46 1015.1
20260903192556 89 137 2.6 8.7 0.00 0.00 0.00 45 1015.2
20260903192052 89 98 3.5 7.8 0.00 0.00 0.00 45 1015.3
20260903191602 89 66 0.9 7.8 0.00 0.00 0.00 46 1015.3
20260903191056 89 116 2.6 7.8 0.00 0.00 0.00 46 1015.5
20260903190552 89 170 1.7 6.1 0.00 0.00 0.00 47 1015.5
20260903190106 88 340 1.7 6.1 0.00 0.00 0.00 47 1015.7
20260903185555 88 277 1.7 6.1 0.00 0.00 0.00 47 1015.7
20260903185053 88 94 0.9 5.2 0.00 0.00 0.00 47 1015.8
20260903184608 88 0 0.9 5.2 0.00 0.00 0.00 47 1016.0
20260903184053 88 0 0.0 5.2 0.00 0.00 0.00 47 1016.0
20260903183556 88 92 0.9 5.2 0.00 0.00 0.00 48 1016.1
20260903183106 88 91 0.9 6.1 0.00 0.00 0.00 48 1016.2
20260903182552 87 88 2.6 6.1 0.00 0.00 0.00 49 1016.3
20260903182054 87 126 1.7 6.1 0.00 0.00 0.00 49 1016.3
20260903181601 87 211 0.9 6.1 0.00 0.00 0.00 49 1016.5
20260903181053 87 164 1.7 6.1 0.00 0.00 0.00 48 1016.6
20260903180553 86 165 1.7 6.1 0.00 0.00 0.00 50 1016.7
20260903180113 86 90 0.9 5.2 0.00 0.00 0.00 52 1016.7
20260903175552 85 100 0.9 5.2 0.00 0.00 0.00 53 1016.8
20260903175052 85 100 0.9 5.2 0.00 0.00 0.00 53 1016.9
20260903174603 85 0 1.7 3.5 0.00 0.00 0.00 54 1016.9
20260903174051 84 73 0.9 5.2 0.00 0.00 0.00 56 1017.0
20260903173551 84 67 1.7 5.2 0.00 0.00 0.00 55 1016.9
20260903173108 84 117 0.9 4.3 0.00 0.00 0.00 56 1016.9
20260903172551 83 132 0.9 3.5 0.00 0.00 0.00 57 1016.9
20260903172051 82 134 0.9 6.1 0.00 0.00 0.00 58 1017.0
20260903171558 82 89 1.7 6.1 0.00 0.00 0.00 58 1017.1
20260903171053 82 129 0.9 4.3 0.00 0.00 0.00 58 1017.0
20260903170552 82 0 1.7 4.3 0.00 0.00 0.00 58 1016.9
20260903170109 82 129 0.0 3.5 0.00 0.00 0.00 59 1016.9
20260903165551 82 130 0.0 3.5 0.00 0.00 0.00 59 1016.9
20260903165052 82 0 1.7 5.2 0.00 0.00 0.00 59 1017.0
20260903164604 82 119 2.6 5.2 0.00 0.00 0.00 58 1016.9
20260903164052 82 123 0.9 3.5 0.00 0.00 0.00 57 1016.8
20260903163554 82 123 0.0 3.5 0.00 0.00 0.00 57 1016.9
20260903163135 82 121 1.7 3.5 0.00 0.00 0.00 58 1017.0
20260903162557 81 0 0.0 4.3 0.00 0.00 0.00 58 1017.0
20260903162053 81 0 0.9 4.3 0.00 0.00 0.00 57 1017.0
20260903161558 81 149 0.9 4.3 0.00 0.00 0.00 57 1017.0
20260903161053 82 161 0.9 3.5 0.00 0.00 0.00 57 1017.0
20260903160553 82 165 0.9 3.5 0.00 0.00 0.00 56 1017.0
20260903160107 82 94 0.9 3.5 0.00 0.00 0.00 57 1017.1
20260903155552 81 0 0.0 3.5 0.00 0.00 0.00 57 1017.1
20260903155056 81 78 0.9 3.5 0.00 0.00 0.00 57 1017.0
20260903154601 81 76 0.0 2.6 0.00 0.00 0.00 57 1016.8
20260903154051 80 0 0.0 0.0 0.00 0.00 0.00 57 1016.9
20260903153553 80 0 0.0 0.0 0.00 0.00 0.00 58 1016.9
20260903153103 80 0 0.0 3.5 0.00 0.00 0.00 59 1016.9
20260903152555 80 0 0.0 3.5 0.00 0.00 0.00 59 1016.9
20260903152056 80 27 0.9 3.5 0.00 0.00 0.00 60 1016.9
20260903151602 79 18 0.0 2.6 0.00 0.00 0.00 60 1016.8
20260903151054 78 0 0.0 0.0 0.00 0.00 0.00 61 1016.9
20260903150551 77 0 0.0 2.6 0.00 0.00 0.00 65 1016.9
20260903150105 77 0 0.9 3.5 0.00 0.00 0.00 67 1017.0
20260903145556 77 0 0.9 3.5 0.00 0.00 0.00 68 1016.9
20260903145057 77 18 0.9 3.5 0.00 0.00 0.00 69 1017.0
20260903144610 77 18 1.7 3.5 0.00 0.00 0.00 68 1017.0
20260903144055 76 16 0.0 3.5 0.00 0.00 0.00 68 1017.0
20260903143550 77 0 1.7 3.5 0.00 0.00 0.00 68 1016.9
20260903143105 77 16 0.9 3.5 0.00 0.00 0.00 68 1017.0
20260903142555 77 16 0.9 4.3 0.00 0.00 0.00 67 1016.9
20260903142052 77 0 1.7 4.3 0.00 0.00 0.00 67 1016.9
20260903141603 77 21 2.6 4.3 0.00 0.00 0.00 64 1016.9
20260903141053 77 0 0.0 3.5 0.00 0.00 0.00 61 1017.0
20260903140551 77 0 0.9 3.5 0.00 0.00 0.00 60 1016.9
20260903140105 77 265 0.9 5.2 0.00 0.00 0.00 60 1016.8
20260903135553 77 0 1.7 7.0 0.00 0.00 0.00 61 1016.9
20260903135052 77 255 2.6 8.7 0.00 0.00 0.00 60 1016.7
20260903134628 78 301 3.5 8.7 0.00 0.00 0.00 59 1016.6
20260903134056 78 282 2.6 7.8 0.00 0.00 0.00 61 1016.6
20260903133557 78 263 0.9 8.7 0.00 0.00 0.00 64 1016.4
20260903133109 78 263 3.5 8.7 0.00 0.00 0.00 62 1016.4
20260903132555 78 246 4.3 8.7 0.00 0.00 0.00 63 1016.5
20260903132055 78 335 3.5 7.8 0.00 0.00 0.00 61 1016.4
20260903131608 78 333 1.7 7.8 0.00 0.00 0.00 60 1016.4
20260903131051 78 301 1.7 8.7 0.00 0.00 0.00 60 1016.3
20260903130555 79 281 2.6 14.8 0.00 0.00 0.00 59 1016.2
20260903130108 79 0 2.6 14.8 0.00 0.00 0.00 58 1016.0
20260903125553 78 283 5.2 13.0 0.00 0.00 0.00 58 1015.9
20260903125053 78 233 5.2 13.0 0.00 0.00 0.00 61 1015.9
20260903124606 79 223 4.3 12.2 0.00 0.00 0.00 62 1015.9
20260903124052 79 222 5.2 13.0 0.00 0.00 0.00 60 1015.9
20260903123552 79 221 3.5 16.5 0.00 0.00 0.00 59 1015.8
20260903123110 79 197 4.3 16.5 0.00 0.00 0.00 59 1015.6
20260903122551 79 237 7.0 15.6 0.00 0.00 0.00 59 1015.7
20260903122054 79 232 3.5 8.7 0.00 0.00 0.00 60 1015.7
20260903121603 79 230 1.7 5.2 0.00 0.00 0.00 60 1015.7
20260903121050 79 238 0.9 6.1 0.00 0.00 0.00 60 1015.7
20260903120557 79 235 1.7 6.1 0.00 0.00 0.00 65 1015.8
20260903120130 78 228 1.7 6.1 0.00 0.00 0.00 68 1015.9
20260903115553 78 115 0.0 0.0 0.00 0.00 0.00 70 1015.8
20260903115055 78 0 0.0 0.0 0.00 0.00 0.00 69 1015.5
20260903114606 78 0 0.0 1.7 0.00 0.00 0.00 69 1015.5
20260903114051 78 0 0.0 3.5 0.00 0.00 0.00 69 1015.4
20260903113553 78 0 0.0 3.5 0.00 0.00 0.00 69 1015.5
20260903113107 78 115 0.9 3.5 0.00 0.00 0.00 69 1015.5
20260903112551 78 114 0.0 5.2 0.00 0.00 0.00 70 1015.6
20260903112050 78 114 1.7 5.2 0.00 0.00 0.00 70 1015.5
20260903111601 78 114 1.7 5.2 0.00 0.00 0.00 70 1015.5
20260903111056 78 122 1.7 3.5 0.00 0.00 0.00 70 1015.5
20260903110551 79 122 0.0 3.5 0.00 0.00 0.00 70 1015.4
20260903110103 79 122 0.9 3.5 0.00 0.00 0.00 70 1015.4
20260903105553 79 122 0.9 4.3 0.00 0.00 0.00 68 1015.4
20260903105052 79 0 0.0 4.3 0.00 0.00 0.00 66 1015.5
20260903104609 79 126 0.9 4.3 0.00 0.00 0.00 67 1015.5
20260903104050 79 126 0.9 2.6 0.00 0.00 0.00 67 1015.5
20260903103550 79 0 0.0 0.9 0.00 0.00 0.00 68 1015.4
20260903103104 79 0 0.0 1.7 0.00 0.00 0.00 68 1015.5
20260903102553 79 0 0.0 2.6 0.00 0.00 0.00 68 1015.5
20260903102050 79 0 0.9 2.6 0.00 0.00 0.00 68 1015.5
20260903101601 80 0 0.0 0.0 0.00 0.00 0.00 65 1015.5
20260903101050 80 0 0.0 2.6 0.00 0.00 0.00 64 1015.5
20260903100554 80 0 0.0 2.6 0.00 0.00 0.00 64 1015.5
20260903095552 79 0 0.0 0.0 0.00 0.00 0.00 64 1015.6
20260903095053 79 0 0.0 0.0 0.00 0.00 0.00 65 1015.6
20260903094603 79 0 0.0 0.0 0.00 0.00 0.00 66 1015.6
20260903094051 79 0 0.0 0.0 0.00 0.00 0.00 67 1015.7
20260903093554 79 0 0.0 0.0 0.00 0.00 0.00 68 1015.7
20260903093106 80 0 0.0 0.0 0.00 0.00 0.00 66 1015.7
20260903092553 80 0 0.0 0.0 0.00 0.00 0.00 67 1015.7
20260903092054 80 0 0.0 0.0 0.00 0.00 0.00 66 1015.5
20260903091601 80 0 0.0 0.0 0.00 0.00 0.00 67 1015.5
20260903091053 80 0 0.0 0.0 0.00 0.00 0.00 63 1015.6
20260903090551 80 0 0.0 0.0 0.00 0.00 0.00 65 1015.6
20260903090058 80 0 0.0 0.0 0.00 0.00 0.00 64 1015.6
20260903085552 80 0 0.0 0.0 0.00 0.00 0.00 63 1015.8
20260903085052 80 0 0.0 0.0 0.00 0.00 0.00 63 1015.8
20260903084603 80 0 0.0 0.0 0.00 0.00 0.00 62 1015.8
20260903084053 80 0 0.0 0.0 0.00 0.00 0.00 63 1015.8
20260903083557 81 0 0.0 0.0 0.00 0.00 0.00 63 1015.9
20260903083106 81 0 0.0 0.0 0.00 0.00 0.00 62 1015.9
20260903082553 81 0 0.0 0.0 0.00 0.00 0.00 62 1015.8
20260903082051 81 0 0.0 0.0 0.00 0.00 0.00 62 1015.9
20260903081601 81 0 0.0 0.0 0.00 0.00 0.00 62 1015.9
20260903081053 81 0 0.0 0.0 0.00 0.00 0.00 60 1016.0
20260903080552 81 0 0.0 0.0 0.00 0.00 0.00 60 1015.9
20260903075553 82 0 0.0 0.0 0.00 0.00 0.00 59 1015.9
20260903075052 82 0 0.0 0.0 0.00 0.00 0.00 58 1016.0
20260903074637 82 0 0.0 0.0 0.00 0.00 0.00 57 1016.0
20260903074052 82 0 0.0 1.7 0.00 0.00 0.00 57 1015.9
20260903073550 82 0 0.0 5.2 0.00 0.00 0.00 57 1015.9
20260903073115 82 0 0.9 5.2 0.00 0.00 0.00 57 1016.0
20260903072556 82 124 1.7 5.2 0.00 0.00 0.00 58 1015.9
20260903072053 82 0 0.9 2.6 0.00 0.00 0.00 57 1016.0
20260903071605 82 0 0.0 1.7 0.00 0.00 0.00 57 1015.9
20260903071053 82 0 0.0 2.6 0.00 0.00 0.00 57 1015.8
20260903070553 82 0 0.0 2.6 0.00 0.00 0.00 57 1015.7
20260903070114 82 0 0.0 2.6 0.00 0.00 0.00 59 1015.8
20260903065553 81 0 0.0 0.0 0.00 0.00 0.00 59 1015.7
20260903065052 82 0 0.0 0.0 0.00 0.00 0.00 60 1015.7
20260903064602 82 0 0.0 0.0 0.00 0.00 0.00 61 1015.8
20260903064052 82 0 0.0 0.0 0.00 0.00 0.00 61 1015.7
20260903063552 82 0 0.0 0.0 0.00 0.00 0.00 58 1015.7
20260903063109 82 0 0.0 0.0 0.00 0.00 0.00 58 1015.7
20260903062552 82 0 0.0 0.0 0.00 0.00 0.00 60 1015.7
20260903062053 82 0 0.0 0.0 0.00 0.00 0.00 60 1015.8
20260903061610 82 0 0.0 0.0 0.00 0.00 0.00 60 1015.9
20260903061056 82 0 0.0 0.0 0.00 0.00 0.00 59 1015.9
20260903060553 82 0 0.0 0.0 0.00 0.00 0.00 59 1015.9
20260903060058 82 0 0.0 2.6 0.00 0.00 0.00 59 1015.9
20260903055552 82 0 0.0 2.6 0.00 0.00 0.00 59 1015.8
20260903055051 83 0 0.0 2.6 0.00 0.00 0.00 59 1015.9
20260903054606 83 0 0.0 3.5 0.00 0.00 0.00 59 1015.9
20260903054053 83 0 0.9 3.5 0.00 0.00 0.00 59 1015.9
20260903053552 83 0 0.0 3.5 0.00 0.00 0.00 57 1015.9
20260903053101 83 279 0.9 3.5 0.00 0.00 0.00 54 1015.9
20260903052557 84 80 1.7 3.5 0.00 0.00 0.00 59 1016.0
20260903052051 83 80 0.9 3.5 0.00 0.00 0.00 53 1015.9
20260903051610 83 0 0.0 2.6 0.00 0.00 0.00 55 1015.9
20260903051052 83 80 0.9 2.6 0.00 0.00 0.00 55 1015.9
20260903050552 84 80 0.0 3.5 0.00 0.00 0.00 59 1015.9
20260903050111 84 80 1.7 3.5 0.00 0.00 0.00 55 1015.8
20260903045554 84 80 0.0 1.7 0.00 0.00 0.00 57 1015.8
20260903045051 84 80 0.0 3.5 0.00 0.00 0.00 58 1015.8
20260903044603 84 80 0.9 6.1 0.00 0.00 0.00 57 1015.8